Terug naar catalogus

STARLINK-30564

ActiefCommunicatieVLEO
NORAD 58043·PAYLOAD·🇺🇸 United States

Gelanceerd Oct 9, 2023 vanaf Vandenberg Space Force Base

Loading…

Volgende Passages (komende 24 uur)

TLE

VersSource: CelesTrak SupGP

Epoch: Sep 14, 2026, 22:40 UTC

1 58043C 23156R   26257.94493056  .00052444  00000+0  15496-2 0  2571
2 58043  53.1570 277.7697 0001316  83.5246 182.3394 15.34361264    13

Volg STARLINK-30564 in realtime met AllMySat

Download on the App Store